Theta_e
317 316 315 313 311 310 310 309 307 307 307 307 306 305 306 305 305 306 306 306 305 303 302 302 302 303 303 305 305 305 306 307 306 305 303 304 305 305 305 305 305 305 305 304 304 303 303 303 302 302 301 301 301 301 301 302 302 302 301 301 300 300 300 300 299 298 298 297 297
317 315 314 310 311 311 311 308 307 306 306 306 306 306 306 306 306 306 306 305 304 304 303 303 303 304 305 305 305 306 307 306 306 305 304 304 305 305 305 305 305 305 304 304 303 303 303 302 302 302 301 302 301 301 301 302 302 302 301 300 300 300 300 299 299 298 298 297 297
316 315 313 312 313 313 312 309 307 306 306 306 306 306 306 307 307 306 306 304 304 304 304 304 304 305 306 306 307 307 307 307 306 305 304 304 305 305 305 305 305 304 303 303 303 303 303 303 302 301 300 301 301 301 301 302 302 301 301 300 300 300 299 299 298 298 298 297 296
316 315 313 312 313 314 315 313 308 306 306 306 306 306 307 307 307 307 305 304 303 303 304 304 305 306 307 307 307 307 307 305 305 304 304 304 304 304 305 305 304 304 303 303 303 303 303 303 302 301 301 301 301 301 301 301 301 301 300 300 300 299 299 298 298 298 297 296 296
316 315 315 313 314 315 315 312 308 307 307 307 307 307 307 307 307 306 305 303 303 303 304 306 306 307 307 307 307 306 306 304 302 303 304 304 304 304 304 304 304 303 303 303 303 303 303 303 302 301 301 301 301 301 300 301 301 301 300 300 299 299 298 298 298 297 297 296 296
316 316 316 315 315 315 314 315 310 308 308 307 307 307 307 307 306 305 303 302 303 304 306 306 306 306 306 307 307 306 305 304 303 304 304 304 304 304 304 303 303 303 303 303 303 303 303 302 301 301 301 301 301 301 301 300 300 300 299 299 299 299 298 298 297 297 296 296 295
316 316 316 315 315 314 314 315 311 309 308 307 308 307 307 306 305 303 303 303 305 305 306 305 306 306 307 307 306 306 305 304 304 304 304 304 304 304 303 303 303 303 303 303 303 303 303 303 301 300 300 300 300 300 300 300 299 299 299 298 298 298 298 297 297 297 296 296 295
316 316 315 314 314 314 314 314 311 309 308 307 307 307 307 306 305 304 305 305 306 306 306 306 307 307 307 306 306 305 304 304 304 304 304 304 304 303 303 303 302 302 302 302 302 302 302 302 301 300 300 300 299 300 300 300 299 299 298 298 298 298 298 298 297 297 296 296 295
316 316 315 314 315 315 315 313 311 310 308 308 307 307 307 306 306 306 305 305 305 306 306 306 307 307 307 306 305 305 304 304 304 304 304 304 303 303 302 302 302 302 302 302 302 302 302 301 300 300 300 300 299 299 300 300 299 298 298 297 297 297 297 298 297 297 296 296 295
315 316 315 314 315 316 316 314 312 310 309 309 309 308 307 304 305 305 305 305 305 306 306 307 307 307 307 306 305 305 304 304 303 303 303 303 302 302 302 301 301 301 301 301 302 301 301 300 300 300 300 300 299 299 300 300 299 298 298 298 297 297 297 297 297 296 296 296 296
316 316 315 315 315 315 315 313 311 310 309 309 308 307 306 304 305 305 305 305 305 306 306 307 307 307 306 305 305 304 304 303 303 303 302 302 301 301 301 300 300 300 301 301 301 301 301 300 299 299 299 300 299 299 299 299 299 298 298 298 297 297 296 296 296 296 296 296 296
316 316 316 316 315 314 313 311 310 309 308 308 307 306 306 306 306 305 305 305 305 306 306 307 307 306 306 305 304 304 303 303 302 302 301 301 301 301 300 300 300 300 300 300 301 301 300 299 299 298 299 299 299 299 299 299 298 298 298 298 297 297 296 296 296 296 296 296 296
317 317 316 316 315 313 311 310 309 309 308 308 307 307 306 306 306 305 305 305 305 305 306 307 306 306 305 305 304 303 302 302 301 301 301 300 300 300 300 299 300 300 300 301 301 301 300 299 298 298 298 299 299 300 299 299 298 297 297 297 297 296 296 296 296 296 296 295 295
318 316 315 315 313 312 310 309 309 308 308 308 308 308 307 307 305 305 305 305 305 305 306 306 306 305 305 304 304 302 301 300 300 300 300 300 300 300 299 299 300 300 300 301 301 301 300 299 298 298 298 298 299 299 299 299 298 297 296 296 296 296 296 296 296 295 296 295 295
318 316 315 314 312 311 309 309 309 308 308 308 308 308 307 306 305 304 305 306 305 306 306 305 305 304 304 304 303 301 300 299 299 299 299 299 299 299 299 299 299 300 300 301 301 301 300 299 299 299 299 298 298 298 299 299 298 297 297 296 296 296 296 296 296 296 296 296 295
318 316 315 313 312 311 310 309 309 309 309 308 307 307 306 305 304 304 305 305 305 305 305 304 304 304 304 303 302 300 299 299 298 298 298 298 298 298 299 299 299 300 300 300 301 301 300 299 300 299 299 299 298 298 298 298 298 297 297 297 297 296 296 296 296 296 296 296 295
317 316 315 313 312 311 310 310 310 310 309 308 307 306 305 305 304 304 303 304 304 304 303 303 303 303 302 301 301 300 299 298 298 298 297 297 298 298 299 299 299 300 300 300 300 299 299 300 301 301 300 299 299 298 298 298 298 297 297 297 297 297 296 296 295 296 296 295 295
317 316 315 313 312 311 311 311 311 310 309 307 306 305 304 305 304 303 303 303 303 303 303 303 303 302 301 300 300 299 298 298 298 298 298 298 298 298 299 299 299 300 299 299 299 299 299 299 300 301 301 300 299 299 298 298 297 297 297 297 297 297 296 296 296 296 296 295 295
316 315 314 313 312 311 311 311 311 310 308 307 305 304 304 304 304 303 303 303 303 303 302 302 301 301 300 299 299 298 298 298 298 298 298 298 299 299 299 299 299 299 299 299 299 299 299 300 300 301 301 300 300 299 299 298 298 297 297 297 297 297 297 297 297 296 296 296 295
315 314 313 312 312 311 311 311 310 308 307 305 304 303 304 304 303 303 302 302 302 302 302 300 300 299 299 299 298 298 298 298 298 298 299 299 299 299 299 299 299 299 299 299 299 299 299 300 300 300 300 300 299 299 299 298 298 298 297 297 297 297 297 297 297 297 297 296 295
314 313 313 311 310 310 309 309 308 307 305 305 304 303 303 303 302 302 302 301 302 301 301 299 299 298 298 298 298 298 298 298 299 299 299 299 299 299 299 299 299 299 299 299 299 299 299 299 300 300 300 299 299 299 299 298 298 298 298 298 297 297 297 297 297 297 297 296 296
312 312 310 308 308 308 307 307 306 305 304 304 304 303 303 302 302 302 302 302 302 301 300 299 299 299 298 298 298 298 298 298 300 300 299 299 299 299 299 299 299 299 299 299 299 299 299 300 300 300 300 299 299 298 298 298 298 298 298 298 298 297 297 297 297 297 297 296 296
309 308 307 306 306 305 305 305 304 304 303 303 304 303 303 302 302 302 302 302 300 300 300 300 300 299 299 299 299 298 298 299 299 299 299 300 299 299 299 300 299 299 299 299 299 300 300 300 300 300 299 299 298 298 298 298 298 298 298 298 298 297 297 297 297 297 296 296 296
305 305 305 305 305 305 304 304 304 303 303 303 303 303 302 302 302 302 301 301 300 300 300 300 300 300 300 300 299 298 298 298 298 299 299 299 299 299 299 300 299 299 300 300 300 300 300 300 300 299 299 299 298 298 298 299 298 298 298 298 298 297 297 297 297 296 296 296 296
305 305 304 304 304 304 303 303 303 302 302 302 302 302 301 301 301 301 301 301 301 301 301 301 301 301 301 300 299 299 298 298 298 298 298 299 299 299 299 299 300 300 300 300 297 295 295 296 298 299 299 298 298 299 299 299 299 299 299 298 298 297 297 297 296 296 296 295 295
305 305 304 303 303 302 302 302 302 302 301 302 301 301 301 300 300 300 300 300 301 301 301 301 301 301 300 300 299 299 298 298 298 298 298 298 299 299 299 299 300 301 300 298 294 293 292 293 294 295 297 299 299 299 299 299 299 299 299 299 298 298 297 297 296 296 295 295 295
305 305 304 303 303 302 301 301 301 301 301 301 301 301 301 300 300 300 300 301 301 301 301 301 301 300 298 299 299 298 298 298 298 298 298 299 299 299 299 299 300 301 300 296 293 291 291 292 292 293 295 299 299 299 299 299 299 299 299 298 298 298 298 297 297 296 296 295 295
305 305 305 305 304 303 303 303 302 302 302 301 301 301 301 300 300 300 300 300 300 300 300 300 300 299 299 298 298 298 298 298 298 298 299 299 299 299 299 299 300 300 298 294 292 291 291 291 291 291 292 295 298 300 299 299 299 298 298 298 298 298 297 297 296 296 296 296 295
305 305 305 305 304 304 304 304 303 303 303 303 302 302 302 302 301 301 300 300 300 299 299 299 299 299 299 298 298 298 298 298 298 299 300 299 299 299 299 299 299 298 295 292 291 291 291 291 291 290 290 292 295 297 298 298 298 298 298 297 297 297 296 296 296 296 296 296 295
305 305 305 305 305 304 304 304 304 304 303 303 302 303 303 303 302 301 301 300 300 300 299 299 299 298 298 298 298 298 298 298 299 299 300 300 299 299 299 298 299 298 295 291 291 291 291 291 291 290 289 289 292 295 297 297 297 297 297 297 297 296 296 295 295 295 296 296 295
305 305 305 305 304 304 304 304 304 304 304 304 303 303 302 301 301 301 300 300 300 300 299 299 299 298 298 298 298 298 298 298 299 300 300 299 298 298 299 299 299 297 295 290 291 291 291 291 290 290 289 288 290 293 295 296 296 297 297 297 297 296 296 295 295 295 295 295 295
305 305 304 304 304 304 304 304 304 305 305 305 304 303 302 301 301 301 301 301 301 300 299 299 299 298 298 298 298 298 298 299 299 300 299 299 298 298 298 298 299 297 294 290 290 290 291 290 290 290 289 288 289 292 294 295 295 296 297 297 297 296 295 295 294 294 294 295 294
304 304 304 304 304 304 304 305 305 305 305 305 304 303 302 302 302 302 302 301 301 300 300 299 298 298 298 298 298 299 299 299 299 298 298 298 298 298 298 298 298 297 294 290 290 290 290 290 290 290 289 288 290 292 293 294 295 296 296 296 296 296 295 295 294 294 294 294 294
304 304 304 304 304 304 305 305 305 305 305 304 304 303 303 303 302 302 302 301 301 300 299 298 298 298 298 299 299 299 299 299 299 299 299 298 298 298 298 298 298 296 293 290 290 290 290 290 290 290 289 288 290 292 293 294 294 295 296 296 296 296 296 295 295 295 295 295 294
304 304 304 304 304 304 305 305 305 305 304 304 304 303 303 303 303 302 301 300 300 300 300 299 299 299 299 300 300 300 299 299 299 299 299 299 298 298 297 297 297 295 292 290 290 290 290 290 289 289 289 289 291 293 294 294 295 295 296 296 296 296 296 296 296 296 295 295 295
304 304 304 304 305 305 305 304 304 304 304 304 304 304 304 304 303 303 301 299 299 300 300 299 299 299 299 299 299 299 299 299 299 299 299 299 298 297 297 297 297 295 292 290 290 290 290 290 289 289 289 290 292 293 294 294 295 295 296 296 296 296 296 296 296 296 296 295 295
304 304 304 305 305 305 304 304 304 303 303 304 304 304 303 303 303 303 301 300 300 300 300 300 299 299 299 298 298 298 299 299 299 299 299 298 297 297 297 297 298 297 294 291 290 290 290 289 289 289 289 291 293 294 294 295 295 296 296 296 296 296 297 297 297 297 296 296 295
304 304 304 304 304 304 304 304 304 303 303 304 304 304 303 303 303 302 301 299 300 300 300 299 299 299 299 298 298 299 299 299 299 299 298 297 297 297 297 298 299 299 297 292 290 290 289 289 289 289 289 292 293 294 295 295 295 296 296 296 296 296 297 297 297 297 296 296 293
304 304 304 304 303 303 303 303 304 304 304 304 303 303 303 303 302 302 301 299 300 300 300 299 299 299 299 298 299 299 299 299 299 298 298 298 298 297 297 299 300 300 298 292 290 289 290 289 289 289 289 291 293 294 295 295 295 295 296 296 296 296 296 297 297 296 296 295 292
304 304 303 303 303 303 303 303 303 303 304 303 303 302 302 302 301 301 301 300 301 301 301 300 300 299 299 298 298 299 299 299 299 298 298 298 298 297 296 298 299 299 297 293 290 289 290 290 289 289 289 291 293 294 295 295 295 295 295 295 295 295 296 296 296 296 295 295 292
303 303 303 303 303 303 303 302 302 303 303 303 302 302 301 301 301 301 301 301 301 301 301 301 300 300 300 297 298 299 299 299 299 299 299 298 298 297 296 298 298 299 298 295 292 290 290 290 289 289 289 291 293 294 295 295 295 295 295 295 295 295 295 295 296 295 295 295 294
Wind_Speed
12 10 8 7 7 7 7 7 7 7 8 8 9 9 9 9 9 9 8 8 7 7 7 8 8 8 10 12 13 12 11 11 12 12 11 11 10 10 10 10 10 10 10 10 9 8 8 7 6 5 4 4 4 5 4 4 5 5 5 5 5 5 5 5 5 5 5 4 3
13 12 10 8 7 7 7 7 7 7 7 7 8 9 9 9 9 9 8 8 8 8 8 8 9 9 11 13 13 12 12 12 13 12 12 12 11 11 10 10 10 10 10 10 9 8 7 7 6 5 4 4 4 5 5 5 5 5 6 6 5 5 5 5 5 5 5 4 3
14 13 11 9 9 8 7 7 7 8 9 9 8 8 9 9 8 8 8 8 9 9 9 8 9 11 12 13 12 12 11 12 13 12 12 11 11 11 11 10 10 10 10 9 9 8 7 8 6 5 4 4 5 5 5 5 6 6 6 7 5 4 4 4 5 5 4 4 4
15 14 12 11 12 11 9 7 9 10 11 9 9 9 9 9 8 7 8 10 10 10 10 10 10 11 12 12 12 12 11 12 13 13 12 11 11 12 11 11 11 10 10 9 9 8 8 8 6 5 4 5 5 5 5 5 6 6 5 5 4 4 4 4 4 4 4 3 4
16 15 13 12 13 12 11 10 10 11 11 9 9 9 9 8 8 8 8 10 10 10 11 12 10 10 11 12 13 13 13 13 13 12 12 12 12 12 12 11 11 10 10 9 9 9 8 8 5 4 5 5 5 5 5 6 6 6 5 4 4 4 4 4 4 4 4 3 4
16 16 14 12 13 12 11 11 12 12 11 10 11 11 10 8 8 8 9 9 10 11 12 13 11 11 11 13 14 13 13 13 12 12 12 12 12 12 12 11 11 10 9 9 9 9 8 7 5 4 4 4 4 5 6 7 6 6 5 4 4 4 4 4 4 4 4 4 4
16 16 16 14 13 13 12 13 13 13 13 11 13 13 12 10 10 11 11 10 10 11 11 11 11 11 12 13 13 13 13 13 12 12 12 12 12 12 12 11 11 10 10 10 10 9 8 7 5 4 4 4 4 5 6 7 6 6 5 5 5 4 4 5 4 4 4 5 6
17 17 17 15 15 14 15 15 15 14 13 12 13 14 14 13 13 13 13 11 11 10 10 9 11 12 13 13 13 13 13 13 13 12 12 12 12 12 12 11 11 11 11 10 10 9 8 6 5 4 4 4 4 5 6 7 7 6 6 6 5 5 5 5 4 4 5 6 6
16 17 17 16 15 15 16 17 16 16 15 14 14 14 14 14 15 15 14 12 11 11 11 10 12 13 14 14 14 14 13 13 13 13 12 12 12 12 12 11 11 11 10 10 10 10 9 6 5 5 5 4 4 5 6 8 7 7 7 6 6 6 6 5 6 6 6 6 6
16 17 17 16 16 16 16 17 17 18 17 16 16 15 15 14 15 14 13 11 11 11 12 11 13 14 15 15 14 14 13 13 12 13 12 12 12 12 12 10 11 11 10 10 9 9 9 6 6 5 5 5 6 6 7 8 8 8 7 6 6 7 7 7 7 7 7 6 7
17 17 17 16 16 16 17 17 17 17 17 16 16 16 15 14 14 14 13 11 12 13 14 13 14 14 15 14 14 14 13 12 11 12 12 12 12 12 11 10 11 11 10 10 9 8 7 6 6 7 7 7 7 7 8 8 9 9 8 7 7 8 8 8 8 7 7 7 8
17 17 17 16 17 16 16 17 16 16 16 16 16 15 15 14 15 14 13 13 13 14 14 14 14 15 14 13 13 13 12 12 12 12 12 12 12 11 11 11 11 11 11 10 9 7 7 7 7 8 8 8 7 7 7 9 9 9 10 9 9 9 9 9 9 8 7 8 8
17 16 16 16 16 16 16 16 15 15 15 16 16 15 14 14 15 14 14 14 14 13 13 13 14 14 14 13 13 12 12 12 12 11 11 11 11 11 11 11 11 11 11 10 9 8 7 8 8 9 9 9 7 7 8 9 10 10 10 10 10 10 10 10 10 9 9 9 8
16 16 16 15 16 16 15 15 14 13 14 16 15 15 14 13 14 13 13 13 13 12 12 12 12 12 12 13 13 12 12 11 11 11 11 11 11 11 11 11 12 11 11 9 9 9 9 8 9 9 9 9 8 8 9 9 10 10 11 11 11 11 11 11 11 10 10 10 9
16 16 16 15 16 15 14 15 13 13 14 15 14 13 12 11 12 12 12 12 13 12 11 11 11 11 12 13 13 13 12 11 12 12 12 12 12 12 12 12 12 12 11 10 10 9 9 10 10 9 9 9 9 9 9 10 10 11 11 11 11 11 11 11 11 11 10 10 10
16 16 16 15 16 15 14 14 12 12 13 13 13 12 11 10 10 10 11 12 12 11 11 12 12 11 12 12 12 12 12 12 12 12 12 12 13 13 13 13 13 13 12 11 11 10 10 10 9 9 9 9 9 9 10 10 11 11 11 11 11 11 11 11 11 11 11 11 11
16 16 16 16 16 16 15 14 12 11 12 13 13 12 11 10 10 11 12 13 11 11 12 13 12 12 12 12 11 11 11 12 12 12 13 13 14 14 14 14 13 13 13 12 12 11 11 10 9 9 9 8 9 9 9 10 11 11 11 11 11 11 11 11 11 11 11 12 12
16 16 16 16 16 16 16 15 13 12 13 13 13 12 12 11 12 13 14 14 13 14 14 15 13 12 12 12 11 10 10 11 12 13 13 14 14 15 15 14 13 13 13 12 12 12 12 11 10 9 9 8 8 9 9 10 10 11 11 12 12 12 12 12 12 11 11 12 12
15 15 15 15 15 15 15 15 14 13 13 14 14 14 14 14 15 16 16 16 15 15 16 15 14 13 13 13 12 10 10 11 13 14 14 14 14 14 14 14 13 13 13 12 12 12 12 11 11 10 10 9 9 9 9 10 10 11 11 12 12 12 12 12 12 12 11 12 12
14 14 14 14 14 14 14 14 13 13 14 14 15 16 17 17 18 18 18 18 16 16 16 16 15 14 13 13 13 12 11 11 13 14 14 14 14 14 14 14 13 13 13 12 12 12 12 11 11 11 11 10 10 10 10 11 11 11 11 11 12 12 13 13 12 12 12 12 12
13 13 12 12 12 12 13 13 12 13 14 15 16 17 18 18 19 19 19 19 17 17 17 16 16 15 15 14 14 13 12 11 12 13 14 13 13 13 13 13 13 13 12 12 12 12 12 12 11 11 11 11 11 11 11 11 11 12 12 11 12 12 13 13 13 13 12 12 12
11 11 11 11 11 11 12 11 12 12 14 15 16 17 18 18 18 18 18 18 17 17 17 16 16 16 16 15 15 14 13 11 12 13 13 12 12 13 13 12 13 13 12 12 12 12 12 12 11 11 11 11 12 12 12 12 12 12 12 12 13 13 13 13 13 13 13 13 13
9 9 10 10 11 11 11 11 11 12 13 14 15 16 17 17 17 17 16 16 16 17 17 16 16 16 17 16 16 15 14 13 13 13 12 12 12 12 12 12 12 13 12 11 12 12 12 11 11 11 11 11 12 13 13 12 12 12 12 13 13 13 13 13 13 13 13 13 13
9 9 9 9 10 11 12 12 12 13 13 14 15 15 16 16 16 15 15 16 16 17 16 14 14 16 17 17 17 16 16 15 14 14 13 13 12 12 12 12 12 12 11 9 9 9 9 9 9 10 11 11 12 12 12 12 12 12 12 12 13 13 13 13 13 13 13 13 12
10 10 10 10 11 12 12 13 13 13 14 14 14 14 15 15 15 15 15 16 16 16 15 14 14 14 15 15 16 16 16 15 15 14 13 13 13 13 12 11 10 10 9 8 8 8 8 8 8 8 9 10 11 11 11 11 12 12 12 12 12 12 12 12 13 13 13 13 12
11 12 12 12 12 13 13 14 14 14 14 14 14 15 15 15 15 15 15 15 15 15 14 13 13 13 12 13 14 15 14 13 13 13 13 13 13 13 12 10 9 8 7 8 8 8 8 9 8 8 8 9 9 10 10 10 11 12 12 12 12 12 12 12 12 13 13 13 13
12 13 14 14 14 15 15 15 14 14 14 14 15 15 16 16 14 14 15 15 15 14 13 12 11 11 11 12 14 14 14 12 12 12 13 13 14 14 13 11 9 8 7 7 8 9 10 10 10 9 9 10 9 9 9 9 10 11 12 12 12 12 12 12 13 13 13 12 13
13 14 15 15 15 15 15 15 15 15 15 15 15 16 16 16 15 14 14 14 14 13 11 10 10 9 9 10 13 14 14 13 12 11 12 13 14 14 13 11 9 8 8 8 9 10 11 11 11 11 11 10 10 10 10 10 10 10 10 11 11 12 12 12 12 12 12 12 12
14 14 15 15 15 15 15 15 16 16 16 16 16 16 15 15 15 15 15 15 15 13 11 9 8 8 8 10 11 13 13 13 12 11 12 13 14 13 13 12 11 9 9 9 10 10 11 12 12 12 12 11 10 9 9 9 9 9 9 9 10 11 11 11 11 11 12 12 12
14 14 14 14 14 15 15 15 15 15 15 14 15 15 15 15 15 16 16 16 15 14 12 10 9 10 11 11 12 12 12 12 11 12 12 14 14 13 13 12 11 10 9 10 11 11 12 12 12 13 13 13 12 11 10 10 10 10 9 9 10 11 11 12 12 13 12 12 12
14 14 14 14 14 14 14 14 14 14 14 13 14 15 15 15 16 16 16 16 15 14 12 12 12 13 13 13 12 12 12 12 12 12 13 14 13 13 13 12 12 10 9 10 11 12 12 13 13 14 14 14 13 11 11 11 11 11 10 10 10 11 11 11 12 13 13 13 13
13 13 13 13 14 13 13 13 13 13 13 13 14 15 15 15 15 15 15 14 14 14 14 14 14 14 14 14 13 13 13 13 13 13 13 13 13 13 12 12 12 10 8 10 11 12 13 13 13 14 14 15 13 12 12 12 12 12 12 12 12 12 12 11 11 12 14 15 14
13 13 13 13 13 13 13 13 12 13 13 13 14 14 15 15 14 14 14 13 13 14 14 15 15 15 15 14 14 14 14 13 14 14 13 13 12 12 12 10 10 8 8 9 11 12 12 13 13 14 14 14 12 11 12 13 12 12 12 12 12 13 13 13 13 13 14 15 15
12 12 12 12 12 12 12 12 12 12 12 13 13 14 14 14 14 13 13 12 12 12 13 13 14 14 14 14 13 13 13 12 12 13 13 12 12 11 11 9 8 6 6 9 11 11 12 12 12 12 12 11 10 10 11 13 12 12 12 13 13 13 14 14 15 15 15 16 15
12 12 12 12 11 11 11 11 12 12 12 13 13 13 13 13 13 13 12 11 11 11 12 12 12 12 12 12 11 12 12 11 11 12 12 11 11 11 10 10 8 6 5 8 10 11 11 11 11 11 10 9 8 9 11 13 13 13 14 14 14 15 15 15 15 15 16 16 15
11 11 11 11 10 10 11 11 12 12 12 12 12 12 12 12 12 11 11 11 11 11 12 12 11 11 11 10 10 10 11 11 11 11 10 10 10 10 10 10 10 8 6 8 9 10 10 10 10 9 8 8 7 8 10 11 11 12 14 15 15 15 16 16 15 15 15 15 15
11 10 10 10 10 10 10 11 11 11 12 11 11 11 11 11 11 10 10 10 11 12 12 12 12 11 11 10 10 10 11 11 11 10 10 9 9 10 10 11 11 9 7 8 9 10 10 10 9 9 8 7 8 8 9 9 9 10 12 13 14 15 15 14 14 14 14 15 15
10 10 10 10 10 10 10 10 10 11 11 11 10 10 10 10 10 10 10 10 11 12 12 12 12 12 11 11 11 11 11 11 10 10 9 9 9 10 10 11 11 9 7 6 8 9 10 10 10 10 9 8 8 8 8 8 9 9 10 11 12 13 13 12 11 12 13 14 14
10 10 10 10 10 10 10 10 10 10 10 10 10 10 10 10 9 9 9 10 11 12 12 12 12 12 12 11 11 10 10 10 9 9 9 9 9 9 9 10 9 8 6 5 7 8 9 10 10 11 10 8 8 8 7 8 9 10 10 10 11 11 12 11 10 10 11 13 13
9 10 10 10 10 10 9 10 10 9 9 9 9 10 10 10 9 9 9 9 10 11 11 11 12 12 11 10 10 9 9 9 8 8 8 8 8 7 6 8 8 8 6 4 6 8 9 10 10 11 11 8 8 7 7 8 9 10 10 10 10 10 10 10 10 9 10 11 11
8 9 9 9 9 9 9 9 9 9 8 8 9 9 9 9 9 9 9 9 10 10 9 9 11 11 10 9 8 9 9 9 8 8 8 7 6 5 5 7 8 8 7 5 5 7 8 9 10 11 11 8 8 7 7 8 9 10 11 11 10 10 9 10 9 9 9 10 10
Wind_Direction
168 166 165 171 180 186 189 187 186 185 184 182 181 179 178 181 181 181 179 173 168 165 166 173 179 181 182 181 180 180 178 176 175 177 180 183 180 176 170 164 161 161 163 164 166 168 169 169 167 166 168 170 170 167 166 172 180 179 174 170 168 168 171 174 175 174 174 174 168
170 169 168 167 174 185 192 188 185 185 185 184 184 181 181 183 184 181 175 167 166 165 167 173 180 182 182 180 180 180 178 175 175 177 180 183 177 173 169 165 165 166 166 166 167 168 168 169 167 166 166 169 172 169 169 174 185 184 178 174 172 173 177 181 180 179 179 180 177
172 170 169 167 171 180 189 191 188 187 187 185 186 185 184 186 184 178 170 165 167 168 169 174 179 181 181 179 180 180 178 174 174 176 178 180 175 172 170 169 169 168 168 167 169 170 169 169 166 164 166 173 175 174 173 178 187 187 183 177 176 178 182 184 181 182 185 188 188
172 171 170 170 172 179 189 196 192 190 189 188 188 188 189 188 183 174 167 165 170 173 175 177 178 178 178 176 178 178 176 173 173 175 176 176 173 172 172 172 171 169 168 169 172 172 171 168 164 165 172 179 179 177 177 179 187 188 185 179 181 184 187 186 184 186 191 195 194
175 174 172 173 174 179 186 193 193 195 195 193 191 191 190 188 180 172 168 170 176 179 179 177 175 173 173 173 176 177 175 173 173 174 175 174 173 173 174 175 172 169 169 172 174 174 173 170 165 169 177 181 181 180 179 181 187 188 185 181 185 190 192 190 188 191 196 200 199
179 177 175 175 177 178 181 187 194 199 200 197 195 193 189 184 178 174 173 176 180 180 178 176 173 170 169 172 175 175 173 172 174 174 174 172 173 174 175 175 172 171 171 174 175 175 174 173 169 172 177 178 181 181 181 183 188 188 186 185 190 195 198 197 195 197 202 206 205
181 179 177 178 178 179 181 185 193 197 200 199 198 195 189 181 177 176 176 178 178 178 176 174 172 170 169 172 174 174 172 172 174 175 174 172 173 174 175 174 173 173 175 176 175 176 176 177 172 170 173 179 184 183 184 188 192 192 190 191 192 198 203 202 200 203 209 212 212
183 181 180 180 181 182 184 186 191 196 199 200 200 195 188 180 178 177 177 179 177 176 175 173 173 171 171 172 173 172 172 172 174 174 173 172 174 175 175 175 175 176 177 177 177 177 177 177 175 173 173 181 186 186 186 191 197 199 198 198 195 199 206 208 203 207 213 215 215
185 184 183 183 185 187 188 189 193 197 199 200 198 193 186 181 180 179 179 180 177 174 173 174 174 173 172 172 172 172 172 173 173 173 173 173 174 175 175 176 177 178 178 179 180 179 178 177 177 176 177 182 187 186 187 191 199 204 207 208 202 202 206 212 210 212 215 216 216
187 186 186 187 189 190 190 190 194 198 200 200 196 191 186 182 182 181 180 179 175 173 174 175 174 173 172 172 172 172 172 173 173 173 172 174 175 175 175 178 180 180 179 180 182 182 180 178 179 180 181 185 187 186 186 192 201 207 212 216 210 208 209 213 215 216 218 219 218
190 189 189 190 190 190 189 189 194 197 199 199 194 190 186 184 183 182 180 177 174 174 175 174 173 172 172 172 172 172 172 172 172 172 173 174 175 176 177 180 183 182 180 180 182 182 181 180 183 184 185 188 188 186 187 193 202 209 214 220 216 214 215 216 218 220 221 221 221
193 192 192 193 191 190 189 189 192 194 196 197 193 189 186 185 184 182 179 176 175 176 176 173 173 172 171 171 171 171 171 171 171 171 172 174 175 177 180 184 186 185 182 181 182 183 183 183 187 188 188 189 187 186 188 194 203 210 216 220 219 218 218 219 220 221 222 222 222
196 195 194 193 190 188 188 188 191 192 194 195 192 189 186 185 183 181 179 177 177 177 175 172 172 172 171 170 170 169 169 169 170 169 170 172 176 180 184 188 189 187 184 180 184 185 186 185 190 191 190 188 187 187 190 196 205 211 216 219 220 220 220 220 221 222 224 225 225
197 196 194 191 188 186 186 188 190 191 192 194 192 189 185 182 181 180 179 177 179 177 173 170 172 172 171 170 168 167 166 167 168 168 169 171 178 185 189 192 192 189 184 180 186 189 189 188 192 193 191 189 190 190 192 197 206 213 217 219 220 220 221 221 222 223 224 226 227
198 196 194 190 187 186 186 188 190 191 191 192 191 186 181 176 176 177 177 178 178 175 171 170 171 171 170 168 166 164 163 164 166 168 170 174 183 189 193 196 194 190 185 181 188 192 194 193 194 194 193 191 193 193 194 198 207 214 218 220 221 221 222 223 223 223 223 224 227
199 196 193 189 188 187 188 189 190 190 189 189 185 178 171 166 169 172 176 179 177 174 172 172 170 169 167 166 163 161 162 165 168 171 175 180 187 192 196 198 195 191 187 184 187 192 197 198 198 197 197 196 197 197 198 200 207 213 218 222 222 223 224 225 225 224 223 222 226
199 197 194 191 190 190 190 190 190 188 185 183 176 169 163 160 164 171 177 181 177 175 175 174 170 166 163 162 161 161 164 169 172 176 180 186 190 194 197 198 196 193 189 187 188 192 196 198 199 200 201 201 203 204 204 204 208 213 217 221 223 225 226 226 227 226 225 223 225
200 198 195 193 192 191 191 192 191 186 180 177 170 165 162 162 167 174 179 181 178 176 175 172 168 163 161 160 161 164 168 174 178 182 187 191 193 196 198 199 197 194 192 191 191 194 196 197 196 198 201 204 208 210 211 209 211 214 217 220 222 224 226 228 228 228 227 225 227
200 198 196 195 193 192 192 194 190 184 177 173 168 167 168 171 173 177 180 181 177 175 173 168 164 161 159 159 162 167 174 180 185 188 191 194 195 197 198 199 197 196 196 196 196 197 197 197 196 196 199 204 209 213 215 216 216 216 218 220 222 224 226 228 229 229 229 228 229
201 198 195 194 193 192 192 193 187 180 175 172 170 172 174 177 177 178 179 179 176 172 169 165 162 160 159 160 164 171 180 187 191 193 194 196 197 199 199 199 199 198 199 200 200 200 200 199 197 198 201 205 210 214 217 219 220 220 220 221 222 224 226 227 229 230 231 231 232
202 198 194 191 191 191 190 189 183 178 175 175 175 176 178 180 180 180 179 177 172 169 166 163 161 160 160 163 170 177 184 190 195 196 197 198 199 200 201 201 200 201 201 202 203 203 204 203 201 201 204 207 212 216 219 221 222 222 221 222 223 224 225 227 228 229 231 232 233
199 194 188 184 186 187 186 184 180 179 178 178 178 178 179 181 183 182 179 174 170 168 167 164 162 160 161 167 175 181 186 190 195 197 198 199 200 201 202 203 203 204 204 204 205 205 206 207 205 205 207 211 215 219 222 224 226 225 224 224 224 225 225 226 227 228 230 231 233
187 182 179 179 182 183 182 180 180 181 182 182 181 180 180 181 183 182 178 173 171 169 168 165 163 162 165 171 179 184 186 189 192 195 198 199 202 203 203 204 206 207 207 207 207 208 208 208 209 210 211 215 220 223 225 227 229 229 228 227 227 227 227 226 226 227 229 230 232
175 175 175 177 181 181 181 180 182 184 185 185 184 182 180 181 182 181 178 176 174 173 171 168 166 166 169 174 181 184 186 187 189 193 196 200 203 205 205 206 208 210 210 209 209 209 209 209 211 213 215 218 223 226 228 228 230 232 233 233 232 232 230 228 227 227 228 230 231
175 176 177 178 181 182 182 183 185 186 187 187 184 181 179 180 181 181 179 179 178 177 175 172 169 169 171 176 181 183 185 186 188 190 195 200 204 207 208 208 209 210 211 208 204 203 203 205 210 215 219 221 226 229 231 230 231 233 235 235 236 236 235 233 230 228 228 230 229
179 180 181 181 184 185 185 186 187 188 188 187 184 182 180 181 181 180 179 179 179 179 178 175 171 170 172 175 179 181 183 185 187 190 194 200 205 208 209 209 208 209 210 207 198 194 195 199 206 215 223 228 231 233 234 233 232 232 234 235 236 237 238 237 233 230 228 229 228
183 184 185 185 187 188 188 188 187 188 188 187 185 184 182 180 179 178 178 178 178 179 179 176 171 169 170 174 177 179 181 183 188 193 197 203 206 208 209 211 208 207 207 202 191 190 193 198 204 212 222 231 235 238 239 238 233 232 233 234 235 236 237 238 238 235 231 229 227
187 189 190 190 191 191 190 188 188 189 189 188 187 185 183 179 177 175 175 176 176 176 176 174 168 167 170 176 179 180 182 183 187 194 201 208 210 210 210 212 209 206 203 195 188 189 194 201 206 212 219 228 236 241 243 243 238 234 232 232 233 234 235 237 239 239 236 231 227
191 193 194 194 194 193 192 191 191 191 190 188 187 185 182 178 175 175 175 176 175 174 173 170 166 168 173 178 180 182 183 185 188 195 204 211 213 212 212 214 214 209 197 185 186 190 197 204 209 214 219 227 235 241 244 245 242 239 234 231 231 232 234 235 237 239 239 235 231
193 195 196 197 196 196 194 194 193 192 190 187 186 185 182 179 177 177 178 177 177 176 173 169 168 172 177 178 180 183 186 188 191 199 206 212 213 214 214 216 219 212 196 179 184 191 198 205 210 214 219 224 233 241 248 249 248 246 242 237 233 233 234 236 238 239 240 239 235
194 196 197 198 198 197 196 195 194 192 189 186 184 184 184 183 182 182 181 181 179 177 174 171 173 175 178 178 181 185 188 191 196 202 208 212 212 214 216 218 222 216 198 178 183 191 199 205 210 213 216 219 226 236 245 250 251 251 249 245 240 237 237 239 239 240 241 241 240
194 195 197 199 199 198 197 194 193 191 188 185 184 185 187 188 187 187 185 183 179 177 176 176 177 178 179 180 184 188 191 194 199 204 207 210 212 215 218 220 224 220 203 180 184 191 199 205 210 213 215 215 221 231 241 247 251 252 253 251 248 244 242 241 241 241 241 242 241
194 196 197 199 199 198 196 193 191 190 188 186 186 188 190 191 191 190 188 185 180 178 179 179 179 180 181 184 188 191 194 197 201 203 206 208 212 216 219 222 226 222 206 184 186 192 199 206 211 214 214 212 219 230 238 244 247 250 251 251 249 247 246 244 243 242 242 242 242
194 196 198 200 199 197 193 190 189 189 189 189 189 191 192 193 192 191 189 185 180 180 181 182 182 183 185 188 190 193 195 198 200 202 204 207 212 216 220 224 226 219 198 183 187 193 200 207 212 214 213 209 218 230 237 240 243 246 247 248 248 247 246 245 244 244 243 243 243
193 195 197 199 197 194 190 188 187 188 190 192 192 193 193 195 192 190 187 183 179 180 182 184 185 186 188 190 192 194 196 198 199 201 203 206 211 216 220 226 229 220 193 179 188 195 202 208 212 211 208 206 219 231 237 239 241 243 245 246 247 247 246 246 246 245 244 243 243
191 193 195 197 194 191 188 187 188 189 191 193 193 193 194 195 192 188 184 179 179 181 183 185 187 188 188 188 190 194 196 198 198 200 202 206 211 215 221 228 232 224 201 180 188 196 202 207 207 203 200 205 221 231 236 238 241 243 245 247 248 248 248 247 246 245 244 243 242
188 190 191 192 190 189 188 188 189 190 192 192 192 193 194 195 191 186 182 179 182 184 186 186 187 187 187 186 189 193 197 198 197 198 200 204 209 215 222 229 235 230 211 184 189 195 201 204 199 194 195 210 226 234 238 240 244 246 248 249 250 250 250 250 247 244 242 240 239
184 185 186 188 188 188 188 188 190 191 191 191 191 192 193 193 190 186 182 183 187 188 187 186 187 188 188 188 190 194 196 197 196 196 199 204 210 217 225 232 239 239 227 192 189 193 199 201 193 190 195 215 230 238 243 246 248 250 251 252 253 252 251 251 247 243 239 235 233
180 181 183 186 188 189 188 187 189 190 190 189 190 191 192 193 191 187 185 187 192 191 189 188 189 190 190 190 191 192 194 196 195 196 200 207 212 220 229 238 246 250 243 204 187 189 195 198 191 190 195 216 232 242 248 252 253 254 254 255 256 255 254 251 247 243 237 232 226
177 179 182 186 188 189 189 187 186 187 188 189 190 191 192 194 193 188 186 189 195 195 193 190 190 189 188 188 190 190 191 194 196 199 204 212 213 219 230 242 252 256 252 221 192 189 193 197 192 191 196 216 231 241 249 253 256 256 256 256 257 257 255 252 247 242 238 231 220
174 177 181 185 187 188 188 187 184 183 184 188 190 191 191 193 193 190 187 190 195 196 195 191 188 185 183 183 187 190 192 195 198 200 204 212 212 213 222 237 248 254 254 241 209 195 194 197 194 193 198 217 231 241 247 251 255 256 256 256 257 257 257 254 248 242 237 232 222